QPF
0.00 0.00 0.00 0.00 0.00 0.00 0.00 0.00 0.00 0.00 0.00 0.00 0.00 0.00 0.00 0.00 0.00 0.00 0.00 0.00 0.00 0.00 0.00 0.00 0.00 0.01 0.01 0.01 0.01 0.01 0.01 0.01 0.02 0.02 0.02 0.02 0.02 0.02 0.02 0.02 0.02 0.02 0.02
0.00 0.00 0.00 0.00 0.00 0.00 0.00 0.00 0.00 0.00 0.00 0.00 0.00 0.00 0.00 0.00 0.00 0.00 0.00 0.00 0.00 0.00 0.00 0.00 0.00 0.00 0.00 0.01 0.01 0.01 0.01 0.01 0.01 0.01 0.01 0.01 0.01 0.01 0.01 0.01 0.02 0.02 0.02
0.00 0.00 0.01 0.01 0.00 0.00 0.00 0.00 0.00 0.00 0.00 0.00 0.00 0.00 0.00 0.00 0.00 0.00 0.00 0.00 0.00 0.00 0.00 0.00 0.00 0.00 0.00 0.00 0.00 0.00 0.00 0.00 0.00 0.00 0.00 0.00 0.01 0.01 0.01 0.01 0.01 0.01 0.02
0.00 0.00 0.01 0.01 0.01 0.01 0.00 0.00 0.01 0.01 0.00 0.00 0.00 0.00 0.00 0.00 0.00 0.00 0.00 0.00 0.00 0.00 0.00 0.00 0.00 0.00 0.00 0.00 0.00 0.00 0.00 0.00 0.00 0.00 0.00 0.00 0.00 0.00 0.01 0.01 0.01 0.01 0.01
0.00 0.00 0.01 0.01 0.01 0.01 0.00 0.00 0.00 0.00 0.00 0.00 0.00 0.00 0.00 0.00 0.00 0.00 0.00 0.00 0.00 0.00 0.00 0.00 0.00 0.00 0.00 0.00 0.00 0.00 0.00 0.00 0.00 0.00 0.00 0.00 0.00 0.00 0.00 0.00 0.01 0.01 0.01
0.00 0.01 0.01 0.01 0.01 0.01 0.00 0.00 0.00 0.00 0.00 0.00 0.00 0.00 0.00 0.00 0.00 0.00 0.00 0.00 0.00 0.00 0.00 0.00 0.00 0.00 0.00 0.00 0.00 0.00 0.00 0.00 0.00 0.00 0.00 0.00 0.00 0.00 0.00 0.00 0.00 0.00 0.01
0.00 0.01 0.01 0.01 0.01 0.01 0.01 0.00 0.00 0.00 0.00 0.00 0.00 0.00 0.00 0.00 0.00 0.00 0.00 0.00 0.00 0.00 0.00 0.00 0.00 0.00 0.00 0.00 0.00 0.00 0.00 0.00 0.00 0.00 0.00 0.00 0.00 0.00 0.00 0.00 0.01 0.01 0.01
0.00 0.01 0.01 0.01 0.00 0.00 0.00 0.00 0.00 0.00 0.00 0.00 0.00 0.00 0.00 0.00 0.00 0.00 0.00 0.00 0.00 0.00 0.00 0.00 0.00 0.00 0.00 0.00 0.00 0.00 0.00 0.00 0.00 0.00 0.00 0.00 0.00 0.00 0.01 0.01 0.01 0.01 0.01
0.00 0.00 0.00 0.00 0.00 0.00 0.00 0.00 0.00 0.00 0.00 0.00 0.00 0.00 0.00 0.00 0.00 0.00 0.00 0.00 0.00 0.00 0.00 0.00 0.00 0.00 0.00 0.00 0.00 0.00 0.00 0.00 0.00 0.00 0.00 0.00 0.00 0.01 0.01 0.01 0.01 0.01 0.02
0.00 0.00 0.00 0.00 0.00 0.00 0.00 0.00 0.00 0.00 0.00 0.00 0.00 0.00 0.00 0.00 0.00 0.00 0.00 0.00 0.00 0.00 0.00 0.00 0.00 0.00 0.00 0.00 0.00 0.00 0.00 0.00 0.00 0.00 0.00 0.00 0.00 0.01 0.01 0.01 0.01 0.02 0.02
0.00 0.00 0.00 0.00 0.00 0.00 0.00 0.00 0.00 0.00 0.00 0.00 0.00 0.00 0.00 0.00 0.00 0.00 0.00 0.00 0.00 0.00 0.00 0.00 0.00 0.00 0.00 0.00 0.00 0.00 0.00 0.00 0.00 0.00 0.00 0.00 0.00 0.00 0.01 0.01 0.01 0.01 0.01
0.00 0.00 0.00 0.00 0.00 0.00 0.00 0.00 0.00 0.00 0.00 0.00 0.00 0.00 0.00 0.00 0.00 0.00 0.00 0.00 0.00 0.00 0.00 0.00 0.00 0.00 0.00 0.00 0.00 0.00 0.00 0.00 0.00 0.00 0.00 0.00 0.00 0.00 0.01 0.01 0.01 0.01 0.01
0.00 0.00 0.00 0.00 0.00 0.00 0.00 0.00 0.00 0.00 0.00 0.00 0.00 0.00 0.00 0.00 0.00 0.00 0.00 0.00 0.00 0.00 0.00 0.00 0.00 0.00 0.00 0.00 0.00 0.00 0.00 0.00 0.00 0.00 0.00 0.00 0.00 0.00 0.01 0.01 0.01 0.01 0.01
0.00 0.00 0.00 0.00 0.00 0.00 0.00 0.00 0.00 0.00 0.00 0.00 0.00 0.00 0.00 0.00 0.00 0.00 0.00 0.00 0.00 0.00 0.00 0.00 0.00 0.00 0.00 0.00 0.00 0.00 0.00 0.00 0.00 0.00 0.00 0.00 0.00 0.00 0.01 0.01 0.01 0.01 0.01
0.00 0.00 0.00 0.00 0.00 0.00 0.00 0.00 0.00 0.00 0.00 0.00 0.00 0.00 0.00 0.00 0.00 0.00 0.00 0.00 0.00 0.00 0.00 0.00 0.00 0.00 0.00 0.00 0.00 0.00 0.00 0.00 0.00 0.00 0.00 0.00 0.00 0.00 0.01 0.01 0.01 0.01 0.01
0.00 0.00 0.00 0.00 0.00 0.00 0.00 0.00 0.00 0.00 0.00 0.00 0.00 0.00 0.00 0.00 0.00 0.00 0.00 0.00 0.00 0.00 0.00 0.00 0.00 0.00 0.00 0.00 0.00 0.00 0.00 0.00 0.00 0.00 0.00 0.00 0.00 0.01 0.01 0.01 0.01 0.02 0.02
0.00 0.00 0.00 0.00 0.00 0.00 0.00 0.00 0.00 0.00 0.00 0.00 0.00 0.00 0.00 0.00 0.00 0.00 0.00 0.00 0.00 0.00 0.00 0.00 0.00 0.00 0.00 0.00 0.00 0.00 0.00 0.00 0.00 0.00 0.00 0.00 0.00 0.01 0.01 0.01 0.02 0.02 0.02
0.00 0.00 0.00 0.00 0.00 0.00 0.00 0.00 0.00 0.00 0.00 0.00 0.00 0.00 0.00 0.00 0.00 0.00 0.00 0.00 0.00 0.00 0.00 0.00 0.00 0.00 0.00 0.00 0.00 0.00 0.00 0.00 0.00 0.00 0.00 0.00 0.01 0.01 0.01 0.01 0.02 0.02 0.02
0.00 0.00 0.00 0.00 0.00 0.00 0.00 0.00 0.00 0.00 0.00 0.00 0.00 0.00 0.00 0.00 0.00 0.00 0.00 0.00 0.00 0.00 0.00 0.00 0.00 0.00 0.00 0.00 0.00 0.00 0.00 0.00 0.00 0.00 0.00 0.00 0.00 0.00 0.01 0.01 0.02 0.02 0.02
0.00 0.00 0.00 0.00 0.00 0.00 0.00 0.00 0.00 0.00 0.00 0.00 0.00 0.00 0.00 0.00 0.00 0.00 0.00 0.00 0.00 0.00 0.00 0.00 0.00 0.00 0.00 0.00 0.00 0.00 0.00 0.00 0.00 0.00 0.00 0.00 0.00 0.00 0.01 0.01 0.01 0.01 0.01
0.00 0.00 0.00 0.00 0.00 0.00 0.00 0.00 0.00 0.00 0.00 0.00 0.00 0.00 0.00 0.00 0.00 0.00 0.00 0.00 0.00 0.00 0.00 0.00 0.01 0.00 0.00 0.00 0.01 0.01 0.01 0.01 0.00 0.00 0.00 0.00 0.00 0.00 0.00 0.00 0.00 0.01 0.01
0.00 0.00 0.00 0.00 0.00 0.00 0.00 0.00 0.00 0.00 0.00 0.00 0.00 0.00 0.00 0.00 0.00 0.00 0.00 0.00 0.00 0.00 0.00 0.01 0.01 0.01 0.01 0.01 0.01 0.01 0.01 0.01 0.01 0.00 0.01 0.01 0.00 0.00 0.00 0.00 0.00 0.01 0.02
0.00 0.00 0.00 0.00 0.00 0.00 0.00 0.00 0.00 0.00 0.00 0.00 0.00 0.00 0.00 0.00 0.00 0.00 0.00 0.00 0.00 0.00 0.00 0.01 0.01 0.01 0.01 0.01 0.01 0.01 0.02 0.03 0.03 0.01 0.02 0.02 0.01 0.01 0.00 0.00 0.01 0.01 0.02
0.00 0.00 0.00 0.00 0.00 0.00 0.00 0.00 0.00 0.00 0.00 0.00 0.00 0.00 0.00 0.00 0.00 0.00 0.00 0.00 0.00 0.00 0.00 0.01 0.01 0.01 0.01 0.01 0.02 0.03 0.04 0.05 0.03 0.02 0.02 0.03 0.01 0.01 0.01 0.00 0.01 0.01 0.02
0.00 0.00 0.00 0.00 0.00 0.00 0.00 0.00 0.00 0.00 0.00 0.00 0.00 0.00 0.00 0.00 0.00 0.00 0.00 0.00 0.00 0.00 0.00 0.01 0.01 0.02 0.02 0.03 0.03 0.04 0.04 0.05 0.04 0.02 0.02 0.03 0.02 0.01 0.01 0.00 0.01 0.01 0.01
0.00 0.00 0.00 0.00 0.00 0.00 0.00 0.00 0.00 0.00 0.00 0.00 0.00 0.00 0.00 0.00 0.00 0.00 0.01 0.01 0.01 0.01 0.01 0.01 0.01 0.01 0.01 0.01 0.02 0.02 0.02 0.03 0.04 0.03 0.01 0.02 0.02 0.02 0.03 0.01 0.01 0.00 0.00
MSLP
1020.12 1020.34 1020.51 1020.65 1020.79 1020.94 1021.11 1021.28 1021.42 1021.52 1021.56 1021.52 1021.44 1021.34 1021.25 1021.21 1021.23 1021.33 1021.48 1021.65 1021.80 1021.89 1021.91 1021.84 1021.69 1021.50 1021.28 1021.07 1020.89 1020.74 1020.62 1020.51 1020.41 1020.30 1020.16 1020.01 1019.85 1019.69 1019.53 1019.38 1019.22 1019.07 1018.92
1019.68 1019.93 1020.13 1020.32 1020.51 1020.71 1020.91 1021.10 1021.25 1021.34 1021.36 1021.32 1021.23 1021.13 1021.05 1021.02 1021.06 1021.18 1021.36 1021.56 1021.75 1021.89 1021.96 1021.95 1021.85 1021.70 1021.52 1021.32 1021.14 1020.97 1020.82 1020.69 1020.56 1020.42 1020.27 1020.11 1019.95 1019.78 1019.61 1019.43 1019.26 1019.08 1018.90
1019.18 1019.47 1019.73 1019.99 1020.24 1020.50 1020.74 1020.95 1021.12 1021.22 1021.24 1021.19 1021.11 1021.01 1020.94 1020.91 1020.96 1021.08 1021.26 1021.47 1021.67 1021.84 1021.94 1021.98 1021.94 1021.85 1021.71 1021.55 1021.38 1021.21 1021.04 1020.88 1020.72 1020.55 1020.37 1020.19 1020.02 1019.83 1019.66 1019.47 1019.29 1019.09 1018.88
1018.66 1019.01 1019.34 1019.67 1020.00 1020.32 1020.61 1020.86 1021.04 1021.15 1021.19 1021.16 1021.08 1021.00 1020.93 1020.91 1020.95 1021.05 1021.20 1021.39 1021.58 1021.74 1021.87 1021.95 1021.96 1021.93 1021.85 1021.74 1021.60 1021.44 1021.27 1021.08 1020.88 1020.67 1020.46 1020.25 1020.04 1019.84 1019.65 1019.46 1019.26 1019.05 1018.82
1018.17 1018.58 1018.99 1019.40 1019.80 1020.18 1020.51 1020.79 1021.00 1021.14 1021.20 1021.20 1021.16 1021.10 1021.05 1021.03 1021.06 1021.12 1021.23 1021.37 1021.51 1021.66 1021.78 1021.88 1021.94 1021.97 1021.96 1021.90 1021.80 1021.67 1021.49 1021.28 1021.04 1020.78 1020.52 1020.26 1020.02 1019.79 1019.58 1019.37 1019.15 1018.93 1018.69
1017.73 1018.21 1018.69 1019.17 1019.63 1020.06 1020.43 1020.74 1020.98 1021.14 1021.24 1021.29 1021.30 1021.30 1021.28 1021.28 1021.29 1021.32 1021.37 1021.44 1021.52 1021.62 1021.72 1021.83 1021.92 1022.00 1022.04 1022.05 1022.00 1021.88 1021.71 1021.48 1021.20 1020.89 1020.57 1020.26 1019.97 1019.70 1019.45 1019.21 1018.98 1018.74 1018.47
1017.37 1017.90 1018.44 1018.98 1019.48 1019.94 1020.34 1020.67 1020.94 1021.14 1021.30 1021.41 1021.50 1021.55 1021.60 1021.62 1021.63 1021.63 1021.62 1021.62 1021.64 1021.67 1021.74 1021.82 1021.93 1022.04 1022.13 1022.18 1022.17 1022.08 1021.91 1021.66 1021.35 1020.99 1020.62 1020.25 1019.90 1019.58 1019.29 1019.02 1018.76 1018.49 1018.21
1017.08 1017.66 1018.25 1018.82 1019.36 1019.83 1020.24 1020.58 1020.87 1021.12 1021.34 1021.53 1021.70 1021.85 1021.96 1022.03 1022.06 1022.04 1021.99 1021.93 1021.87 1021.84 1021.84 1021.90 1021.99 1022.11 1022.23 1022.31 1022.32 1022.25 1022.08 1021.82 1021.47 1021.08 1020.66 1020.24 1019.84 1019.48 1019.14 1018.83 1018.54 1018.23 1017.91
1016.86 1017.49 1018.11 1018.71 1019.25 1019.72 1020.13 1020.48 1020.78 1021.07 1021.35 1021.63 1021.89 1022.14 1022.34 1022.47 1022.54 1022.52 1022.45 1022.33 1022.21 1022.10 1022.05 1022.05 1022.12 1022.22 1022.33 1022.41 1022.43 1022.36 1022.19 1021.92 1021.56 1021.14 1020.69 1020.24 1019.80 1019.40 1019.02 1018.67 1018.33 1017.99 1017.64
1016.70 1017.37 1018.02 1018.62 1019.16 1019.62 1020.02 1020.37 1020.69 1021.02 1021.35 1021.71 1022.06 1022.40 1022.69 1022.90 1023.01 1023.02 1022.93 1022.78 1022.61 1022.45 1022.33 1022.28 1022.29 1022.34 1022.42 1022.48 1022.48 1022.40 1022.22 1021.94 1021.57 1021.14 1020.69 1020.22 1019.78 1019.35 1018.94 1018.56 1018.18 1017.79 1017.39
1016.57 1017.27 1017.94 1018.56 1019.09 1019.55 1019.94 1020.29 1020.62 1020.97 1021.36 1021.77 1022.20 1022.62 1022.98 1023.26 1023.42 1023.46 1023.39 1023.23 1023.03 1022.83 1022.65 1022.54 1022.48 1022.48 1022.49 1022.50 1022.46 1022.34 1022.14 1021.86 1021.50 1021.08 1020.64 1020.19 1019.74 1019.31 1018.89 1018.47 1018.05 1017.63 1017.19
1016.43 1017.18 1017.88 1018.50 1019.05 1019.51 1019.90 1020.25 1020.59 1020.96 1021.37 1021.82 1022.30 1022.77 1023.19 1023.52 1023.73 1023.81 1023.76 1023.62 1023.41 1023.18 1022.97 1022.81 1022.69 1022.61 1022.55 1022.48 1022.38 1022.22 1021.99 1021.69 1021.34 1020.95 1020.53 1020.11 1019.68 1019.25 1018.82 1018.39 1017.94 1017.47 1017.00
1016.27 1017.06 1017.79 1018.44 1019.01 1019.48 1019.88 1020.24 1020.60 1020.97 1021.39 1021.86 1022.36 1022.85 1023.29 1023.65 1023.90 1024.01 1024.00 1023.89 1023.70 1023.48 1023.26 1023.05 1022.87 1022.72 1022.58 1022.43 1022.25 1022.03 1021.77 1021.46 1021.11 1020.74 1020.36 1019.96 1019.57 1019.15 1018.72 1018.27 1017.79 1017.30 1016.79
1016.06 1016.88 1017.65 1018.34 1018.94 1019.45 1019.88 1020.26 1020.62 1021.00 1021.42 1021.87 1022.35 1022.83 1023.27 1023.64 1023.91 1024.06 1024.09 1024.02 1023.87 1023.68 1023.47 1023.25 1023.04 1022.83 1022.61 1022.38 1022.12 1021.83 1021.52 1021.18 1020.83 1020.48 1020.12 1019.76 1019.38 1018.98 1018.55 1018.09 1017.58 1017.05 1016.52
1015.79 1016.64 1017.45 1018.18 1018.82 1019.37 1019.84 1020.25 1020.63 1021.01 1021.41 1021.84 1022.28 1022.72 1023.14 1023.49 1023.76 1023.93 1024.01 1023.99 1023.91 1023.77 1023.59 1023.39 1023.16 1022.91 1022.63 1022.33 1021.99 1021.64 1021.27 1020.90 1020.53 1020.18 1019.83 1019.49 1019.13 1018.73 1018.30 1017.81 1017.28 1016.72 1016.16
1015.45 1016.32 1017.15 1017.92 1018.61 1019.21 1019.73 1020.18 1020.58 1020.97 1021.35 1021.74 1022.14 1022.52 1022.89 1023.21 1023.47 1023.66 1023.78 1023.82 1023.81 1023.74 1023.62 1023.45 1023.23 1022.96 1022.65 1022.28 1021.89 1021.47 1021.05 1020.63 1020.24 1019.87 1019.52 1019.17 1018.81 1018.40 1017.95 1017.44 1016.88 1016.29 1015.70
1015.05 1015.92 1016.76 1017.56 1018.30 1018.95 1019.52 1020.01 1020.45 1020.85 1021.21 1021.57 1021.91 1022.24 1022.55 1022.83 1023.07 1023.27 1023.42 1023.52 1023.57 1023.57 1023.51 1023.39 1023.20 1022.94 1022.61 1022.22 1021.78 1021.32 1020.85 1020.39 1019.97 1019.57 1019.20 1018.83 1018.44 1018.01 1017.53 1016.98 1016.39 1015.78 1015.16
1014.62 1015.46 1016.30 1017.12 1017.88 1018.58 1019.20 1019.74 1020.21 1020.62 1020.99 1021.32 1021.62 1021.90 1022.15 1022.39 1022.60 1022.79 1022.96 1023.09 1023.20 1023.26 1023.26 1023.20 1023.05 1022.82 1022.50 1022.10 1021.65 1021.16 1020.66 1020.18 1019.72 1019.29 1018.88 1018.47 1018.05 1017.58 1017.05 1016.47 1015.85 1015.21 1014.58
1014.18 1014.99 1015.81 1016.62 1017.41 1018.13 1018.79 1019.37 1019.87 1020.31 1020.67 1020.99 1021.26 1021.50 1021.71 1021.91 1022.09 1022.26 1022.42 1022.58 1022.71 1022.82 1022.87 1022.85 1022.75 1022.55 1022.26 1021.89 1021.44 1020.96 1020.45 1019.95 1019.47 1019.01 1018.56 1018.12 1017.64 1017.13 1016.56 1015.95 1015.29 1014.63 1013.98
1013.77 1014.53 1015.32 1016.12 1016.90 1017.63 1018.31 1018.92 1019.45 1019.90 1020.28 1020.60 1020.85 1021.07 1021.25 1021.40 1021.55 1021.69 1021.84 1021.98 1022.12 1022.24 1022.32 1022.34 1022.28 1022.13 1021.88 1021.55 1021.14 1020.69 1020.20 1019.71 1019.22 1018.74 1018.26 1017.77 1017.25 1016.69 1016.08 1015.43 1014.75 1014.06 1013.41
1013.40 1014.12 1014.87 1015.64 1016.39 1017.12 1017.80 1018.42 1018.96 1019.43 1019.83 1020.15 1020.40 1020.60 1020.76 1020.89 1021.00 1021.11 1021.22 1021.33 1021.45 1021.55 1021.63 1021.67 1021.64 1021.54 1021.35 1021.08 1020.74 1020.33 1019.89 1019.43 1018.95 1018.46 1017.96 1017.43 1016.87 1016.27 1015.63 1014.95 1014.24 1013.55 1012.89
1013.09 1013.77 1014.49 1015.21 1015.93 1016.63 1017.29 1017.90 1018.44 1018.91 1019.32 1019.65 1019.91 1020.11 1020.26 1020.36 1020.44 1020.51 1020.57 1020.64 1020.71 1020.78 1020.85 1020.89 1020.89 1020.82 1020.70 1020.50 1020.23 1019.90 1019.53 1019.11 1018.66 1018.18 1017.66 1017.11 1016.52 1015.89 1015.21 1014.51 1013.79 1013.10 1012.44
1012.83 1013.49 1014.17 1014.85 1015.53 1016.18 1016.80 1017.37 1017.90 1018.36 1018.76 1019.10 1019.37 1019.58 1019.73 1019.82 1019.87 1019.90 1019.91 1019.92 1019.94 1019.98 1020.01 1020.05 1020.06 1020.04 1019.98 1019.86 1019.67 1019.43 1019.12 1018.76 1018.34 1017.88 1017.36 1016.80 1016.18 1015.53 1014.83 1014.11 1013.40 1012.71 1012.06
1012.62 1013.27 1013.91 1014.55 1015.17 1015.76 1016.32 1016.84 1017.33 1017.77 1018.17 1018.51 1018.79 1019.01 1019.16 1019.25 1019.28 1019.28 1019.25 1019.21 1019.18 1019.18 1019.18 1019.21 1019.23 1019.25 1019.24 1019.20 1019.09 1018.93 1018.70 1018.39 1018.02 1017.57 1017.06 1016.48 1015.86 1015.18 1014.48 1013.76 1013.06 1012.38 1011.76
1012.44 1013.07 1013.69 1014.28 1014.84 1015.36 1015.85 1016.31 1016.75 1017.16 1017.54 1017.87 1018.16 1018.39 1018.55 1018.64 1018.67 1018.65 1018.59 1018.52 1018.46 1018.42 1018.40 1018.42 1018.46 1018.51 1018.56 1018.57 1018.54 1018.44 1018.27 1018.01 1017.67 1017.24 1016.73 1016.15 1015.52 1014.84 1014.14 1013.44 1012.75 1012.10 1011.51
1012.26 1012.89 1013.48 1014.02 1014.51 1014.96 1015.38 1015.77 1016.15 1016.52 1016.87 1017.20 1017.49 1017.73 1017.90 1018.00 1018.04 1018.01 1017.94 1017.86 1017.78 1017.72 1017.70 1017.72 1017.78 1017.86 1017.94 1018.01 1018.02 1017.98 1017.84 1017.62 1017.29 1016.87 1016.37 1015.79 1015.16 1014.50 1013.82 1013.14 1012.49 1011.88 1011.33
Thickness
5662 5658 5655 5652 5649 5647 5645 5642 5641 5639 5638 5636 5634 5633 5631 5630 5629 5627 5625 5623 5621 5618 5616 5615 5615 5614 5614 5614 5613 5613 5612 5612 5612 5612 5613 5613 5613 5614 5615 5615 5616 5617 5619
5658 5655 5651 5648 5645 5643 5640 5637 5635 5634 5632 5630 5628 5627 5626 5624 5623 5621 5620 5618 5615 5612 5610 5608 5607 5606 5605 5605 5604 5603 5603 5602 5602 5603 5603 5604 5604 5605 5605 5606 5607 5609 5610
5654 5650 5647 5643 5640 5638 5635 5632 5629 5627 5625 5623 5622 5620 5619 5617 5616 5614 5613 5611 5609 5606 5602 5600 5598 5597 5595 5595 5594 5594 5593 5592 5592 5593 5593 5594 5595 5595 5596 5597 5598 5599 5601
5650 5646 5642 5638 5635 5632 5629 5626 5623 5620 5618 5616 5614 5613 5612 5611 5609 5608 5606 5604 5601 5598 5595 5592 5589 5587 5586 5585 5584 5584 5583 5583 5583 5583 5583 5584 5585 5585 5586 5587 5588 5590 5591
5646 5641 5637 5633 5630 5626 5622 5619 5616 5613 5610 5608 5607 5606 5605 5604 5602 5600 5598 5596 5593 5590 5587 5584 5581 5578 5576 5575 5574 5573 5573 5573 5573 5573 5573 5574 5575 5575 5576 5577 5579 5580 5581
5641 5636 5632 5628 5624 5620 5616 5612 5609 5606 5603 5600 5599 5598 5598 5598 5595 5593 5590 5587 5584 5581 5578 5575 5573 5570 5567 5565 5564 5563 5562 5562 5562 5562 5563 5563 5564 5565 5566 5567 5568 5570 5571
5636 5631 5627 5623 5618 5614 5609 5606 5602 5598 5595 5592 5589 5588 5590 5591 5588 5584 5581 5578 5575 5572 5569 5566 5563 5560 5558 5555 5553 5552 5551 5551 5551 5551 5551 5552 5553 5554 5555 5556 5558 5559 5561
5631 5626 5621 5616 5612 5607 5603 5599 5594 5590 5587 5584 5579 5576 5574 5576 5576 5575 5571 5568 5565 5561 5558 5555 5552 5550 5547 5545 5543 5541 5539 5539 5538 5539 5539 5540 5541 5542 5543 5545 5547 5548 5550
5625 5620 5614 5610 5605 5600 5595 5591 5587 5582 5577 5574 5571 5566 5560 5557 5557 5560 5560 5557 5554 5550 5547 5544 5541 5539 5536 5534 5532 5530 5528 5527 5526 5526 5527 5528 5529 5530 5531 5533 5535 5536 5538
5619 5613 5608 5603 5598 5593 5588 5584 5579 5574 5570 5564 5561 5558 5553 5549 5544 5542 5544 5544 5543 5539 5536 5533 5530 5528 5525 5523 5520 5518 5516 5515 5514 5514 5514 5515 5516 5517 5519 5520 5522 5523 5525
5611 5606 5601 5596 5590 5586 5581 5576 5571 5566 5561 5556 5551 5547 5543 5539 5535 5529 5527 5528 5528 5527 5525 5522 5520 5518 5515 5512 5509 5507 5505 5503 5502 5501 5501 5502 5502 5504 5505 5506 5508 5509 5511
5603 5599 5594 5589 5583 5578 5573 5568 5562 5557 5552 5547 5542 5537 5532 5527 5523 5518 5515 5514 5514 5515 5514 5512 5510 5508 5505 5502 5499 5495 5493 5491 5490 5489 5489 5489 5489 5490 5491 5492 5493 5494 5496
5596 5591 5587 5581 5575 5570 5565 5559 5554 5548 5543 5538 5533 5528 5524 5519 5515 5510 5505 5502 5501 5503 5503 5502 5500 5497 5494 5491 5488 5485 5482 5479 5478 5477 5476 5476 5476 5476 5476 5477 5478 5480 5481
5591 5585 5580 5574 5568 5562 5557 5551 5545 5540 5535 5530 5525 5520 5514 5510 5506 5501 5495 5490 5486 5487 5489 5489 5488 5486 5483 5479 5476 5474 5471 5469 5467 5465 5464 5464 5463 5463 5463 5463 5463 5464 5465
5585 5579 5572 5566 5561 5555 5549 5543 5537 5531 5526 5521 5515 5510 5505 5501 5496 5491 5486 5481 5473 5471 5474 5477 5475 5475 5470 5467 5464 5462 5459 5456 5454 5453 5451 5450 5449 5449 5448 5448 5448 5448 5449
5578 5572 5565 5559 5553 5547 5541 5535 5529 5524 5518 5512 5507 5501 5496 5491 5487 5482 5477 5472 5467 5462 5461 5465 5463 5461 5459 5456 5452 5449 5446 5443 5440 5438 5437 5436 5434 5433 5432 5431 5431 5431 5431
5572 5565 5559 5552 5546 5540 5533 5527 5521 5516 5510 5504 5498 5493 5487 5483 5477 5473 5468 5463 5458 5453 5453 5457 5453 5450 5446 5442 5439 5435 5432 5428 5426 5423 5421 5419 5418 5415 5414 5413 5412 5411 5411
5564 5558 5552 5545 5538 5532 5526 5519 5513 5508 5501 5495 5490 5484 5479 5474 5469 5464 5459 5454 5450 5445 5442 5444 5442 5437 5432 5428 5424 5420 5417 5413 5409 5406 5403 5401 5399 5396 5394 5392 5391 5390 5390
5557 5550 5544 5537 5531 5524 5518 5512 5506 5500 5493 5487 5482 5476 5470 5465 5459 5455 5450 5445 5441 5437 5432 5430 5429 5424 5419 5413 5409 5405 5401 5397 5392 5388 5384 5381 5378 5374 5371 5369 5367 5366 5365
5550 5543 5536 5530 5523 5517 5510 5504 5497 5491 5485 5479 5473 5467 5462 5456 5451 5446 5441 5436 5431 5425 5419 5415 5413 5409 5404 5398 5392 5388 5386 5381 5375 5369 5364 5359 5356 5352 5348 5345 5342 5341 5341
5542 5535 5528 5521 5515 5508 5501 5494 5488 5481 5475 5469 5464 5459 5454 5449 5444 5438 5433 5426 5420 5413 5406 5401 5399 5395 5390 5381 5374 5369 5366 5363 5359 5349 5345 5341 5334 5331 5326 5322 5320 5319 5319
5533 5526 5519 5513 5506 5500 5494 5488 5480 5473 5467 5460 5455 5451 5446 5440 5436 5431 5426 5420 5412 5402 5394 5389 5385 5379 5374 5365 5358 5352 5346 5342 5341 5335 5325 5324 5315 5312 5308 5305 5304 5304 5304
5524 5517 5511 5504 5498 5492 5486 5480 5473 5466 5459 5453 5447 5442 5438 5433 5427 5421 5416 5410 5402 5393 5385 5377 5370 5364 5357 5350 5341 5336 5329 5323 5321 5315 5306 5307 5301 5297 5295 5292 5292 5292 5292
5515 5509 5502 5496 5489 5483 5478 5472 5465 5458 5451 5445 5439 5433 5427 5422 5416 5409 5403 5397 5389 5381 5372 5363 5356 5350 5342 5334 5326 5319 5314 5311 5308 5300 5290 5289 5289 5286 5285 5282 5281 5281 5283
5506 5500 5494 5487 5480 5475 5469 5463 5456 5448 5442 5436 5430 5424 5417 5411 5406 5398 5391 5383 5377 5369 5360 5351 5344 5337 5330 5322 5313 5305 5299 5293 5294 5290 5279 5274 5276 5275 5275 5274 5274 5274 5275
5498 5491 5485 5478 5472 5465 5460 5454 5447 5439 5432 5427 5421 5414 5407 5400 5393 5385 5376 5367 5360 5354 5346 5339 5331 5323 5315 5307 5299 5291 5283 5278 5276 5275 5271 5264 5263 5260 5265 5268 5267 5267 5268